PulseSat

PulseSat

MOLNIYA 3-47

Last updated on April 20, 2019, 3:02 a.m. UTC

1 23642U 95042A   19109.56503696  .00000507  00000-0  55531-1 0  9999
2 23642  63.1260 203.8199 6967614 289.6635  11.3699  2.01923705173781
UTC
Height (km)
Latitude
Longitude
Inclination
Orbital Period

Next 30 passes for location: Hong Kong

Rise time Rise Azimuth (degrees) Set time Set Azimuth (degrees) Duration Max altitude (degrees)

No matching passes for this satellites

PulseSat

PulseSat is the new satellites software and hardware trackering solution by Pulsely.
Satellite Two Line Element Set source: US Air Force Space Command

Download PulseSat for iOS
© 2017 Pulsely Limited